Location: Newark
(45.9456°N, 15.4064°E)
Time: 22:23:49
(UTC+00:00)

Transit 2A Rocket - Pass Details

Date: 28 January 2020
Orbit: 592 x 911 km, 66.7° (Epoch: 19 February)

Event Time Altitude Azimuth Distance (km) Brightness Sun altitude
Exits shadow 03:50:42 38° 31° (NNE) 917 5.6 -27.0°
Drops below altitude 10° 03:53:28 10° 33° (NNE) 1,958 7.5 -26.5°
Sets 03:55:45 0° 33° (NNE) 2,892 8.4 -26.1°
